Flag for United Kingdom Weather past 2 weeks in Telford, England, United Kingdom

Now
36 °F

Passing clouds.


Feels Like: 31 °F
Forecast: 41 / 49 °F
Wind: 6 mph from Southeast

Location: Shawbury

Current Time: Apr 28, 2015 at 6:47:35 AM

Latest Report: Apr 28, 2015 at 5:50 AM


Visibility: N/A

Pressure: 29.89 "Hg

Humidity: 81%

Dew point: 30 °F

Location of TelfordLocation

Historic Weather in Telford — Graph

°F

Telford temperature yesterday

Maximum temperature yesterday: 52 °F (at 1:50 PM)
Minimum temperature yesterday: 30 °F (at 5:50 AM)
Average temperature yesterday: 42 °F

Past Weeks' High & Low Weather Summary

 TemperatureHumidityPressure
High64 °F (Apr 21, 4:50 PM)100% (Apr 13, 5:50 AM)30.60 "Hg (Apr 13, 5:50 AM)
Low28 °F (Apr 13, 6:50 AM)40% (Apr 27, 3:50 PM)29.59 "Hg (Apr 25, 4:50 AM)
Average48 °F74%30.13 "Hg
* Reported Apr 13 5:50 AM — Apr 28 5:50 AM, Telford, Weather by CustomWeather, © 2015

Note: Actual official high and low records may vary slightly from our data, if they occured in-between our weather recording intervals... More about our weather records

Advertising

Telford weather history for previous 24 hours

 ConditionsComfort  
Time TempWeatherWind HumidityBarometerVisibility
5:50 AM
Tue, Apr 28
36 °FPassing clouds.6 mph81%29.89 "HgN/A
4:50 AM36 °FPassing clouds.3 mph81%29.89 "HgN/A
3:50 AM34 °FChilly.6 mph87%29.86 "HgN/A
2:50 AM37 °FChilly.9 mph75%29.86 "HgN/A
1:50 AM36 °FChilly.7 mph81%29.86 "HgN/A
12:50 AM36 °FPassing clouds.5 mph93%29.86 "HgN/A
11:50 PM
Mon, Apr 27
37 °FClear.2 mph87%29.83 "Hg10 mi
10:50 PM39 °FScattered showers. Passing clouds.9 mph87%29.83 "HgN/A
9:50 PM39 °FClear.7 mph87%29.83 "Hg10 mi
8:50 PM39 °FPartly sunny.8 mph87%29.83 "HgN/A
7:50 PM45 °FSprinkles. Broken clouds.18 mph57%29.83 "HgN/A
6:50 PM48 °FScattered clouds.15 mph46%29.80 "HgN/A
5:50 PM50 °FPartly sunny.14 mph50%29.80 "HgN/A
4:50 PM50 °FPartly sunny.13 mph47%29.83 "HgN/A
3:50 PM50 °FSprinkles. Partly sunny.16 mph40%29.83 "HgN/A
2:50 PM50 °FSunny.10 mph43%29.83 "Hg10 mi
1:50 PM52 °FSunny.9 mph41%29.83 "Hg10 mi
12:50 PM50 °FSunny.12 mph43%29.86 "Hg10 mi
11:50 AM48 °FPassing clouds.8 mph46%29.86 "HgN/A
10:50 AM46 °FPassing clouds.5 mph53%29.89 "HgN/A
9:50 AM43 °FPassing clouds.5 mph61%29.89 "HgN/A
8:50 AM41 °FPassing clouds.6 mph66%29.89 "HgN/A
7:50 AM37 °FSunny.6 mph81%29.89 "Hg10 mi
6:50 AM32 °FSunny.2 mph87%29.89 "Hg10 mi
Weather by CustomWeather, © 2015

See weather overviewHow to use our weather pages